Lid_Strength_Index
13 15 15 14 15 15 16 17 17 16 15 15 15 15 15 15 15 16 16 16 16 16 15 15 15 15 14 14 13 13 12 11 10 10 10 12 13 13 13 13 13 13 12 11
15 16 13 14 15 16 16 17 18 16 15 15 16 16 16 17 17 17 17 17 16 16 16 16 16 15 15 15 14 13 13 12 12 12 12 12 13 14 14 14 14 14 14 13
15 14 14 15 16 17 17 18 18 17 16 16 17 17 18 17 17 17 16 16 16 16 16 16 16 16 16 15 15 14 14 13 13 12 12 13 14 14 15 15 15 15 15 14
16 14 15 16 16 15 18 16 16 16 17 19 17 20 18 18 18 17 17 17 16 16 16 16 16 16 16 16 15 14 14 14 14 14 15 15 16 17 16 16 15 15 15 15
16 16 15 15 15 15 16 15 16 16 17 19 19 20 18 18 19 18 17 17 16 16 16 16 16 16 16 16 16 15 15 15 15 15 15 15 16 16 16 16 15 15 15 15
14 14 14 14 14 14 15 16 16 18 19 22 19 18 19 19 17 17 17 16 16 16 16 16 16 16 16 16 16 15 15 15 15 15 15 15 16 16 16 16 15 15 15 15
16 15 15 14 16 15 16 17 20 21 22 21 19 19 17 16 16 16 16 16 16 16 16 16 16 17 17 17 16 16 15 16 15 15 15 15 15 15 15 15 15 15 15 15
18 18 16 15 15 16 17 16 20 24 23 21 18 20 17 16 15 15 14 15 15 16 16 16 16 16 16 16 16 16 16 16 15 15 14 14 14 14 14 14 14 14 14 14
18 18 16 15 15 14 17 18 16 21 27 23 19 18 16 16 16 16 15 15 16 16 16 16 16 16 16 16 16 16 16 15 15 15 14 14 14 14 14 14 14 13 13 13
15 18 16 16 15 15 16 15 18 19 24 26 21 19 18 17 17 17 16 16 16 15 16 16 16 16 16 16 16 16 15 15 14 14 14 14 14 14 14 14 14 14 13 13
14 16 17 16 17 17 17 17 17 17 18 22 24 20 17 16 16 16 16 15 15 15 16 16 16 16 16 16 16 16 15 15 14 14 14 14 14 14 14 14 14 14 14 14
14 15 20 18 16 16 16 16 16 17 20 20 20 18 15 14 15 15 15 14 15 15 15 15 15 15 15 16 16 15 14 14 14 14 14 14 14 14 14 15 14 14 14 14
13 15 20 18 17 17 17 16 16 16 16 17 20 18 15 15 15 14 15 14 14 15 16 16 16 16 16 16 15 14 15 15 15 15 15 15 15 15 15 15 15 15 15 16
10 14 15 17 16 17 18 17 16 15 17 17 17 18 16 16 15 15 15 14 14 15 15 15 16 16 16 16 16 16 16 16 15 15 15 16 15 15 15 15 16 16 16 17
12 15 14 15 16 17 18 18 17 16 15 16 15 16 15 13 13 13 13 14 15 15 16 16 16 16 16 16 16 16 16 16 16 16 16 16 16 16 16 16 17 17 17 17
12 16 15 16 16 15 15 16 17 16 15 16 16 16 13 13 14 14 14 14 14 15 15 15 15 15 15 15 16 15 16 17 16 16 16 16 16 17 17 17 18 18 19 19
15 16 16 18 19 19 19 17 15 15 16 15 17 14 15 16 14 13 15 14 14 14 15 14 14 15 15 15 14 16 16 16 16 16 17 17 18 19 19 19 20 20 20 20
15 16 17 24 21 23 18 20 18 15 14 15 17 16 14 14 16 15 15 14 14 14 15 15 15 15 14 15 15 16 16 16 16 17 18 18 19 20 20 21 21 21 21 21
16 16 22 22 22 20 18 20 20 17 17 15 14 16 17 17 16 17 15 15 15 14 14 14 14 14 15 15 16 16 16 17 17 18 18 19 20 22 21 23 22 21 21 21
16 16 16 22 22 23 20 21 19 18 22 18 14 16 17 17 18 16 17 16 15 15 14 14 14 14 15 16 16 17 18 18 19 18 19 20 20 23 23 22 22 21 21 21
20 20 19 20 21 20 18 19 18 22 20 20 17 18 18 17 16 16 16 16 15 15 14 14 14 15 16 17 18 18 19 19 19 20 20 20 21 22 22 22 21 22 22 22
19 19 21 22 21 21 18 18 19 16 17 17 17 17 17 16 16 16 16 16 15 15 14 15 16 16 17 18 18 19 19 19 20 20 20 22 24 23 21 25 24 23 23 24
20 17 19 18 18 17 16 16 15 15 16 16 16 16 15 16 16 16 16 16 15 15 15 16 16 18 19 18 19 19 19 19 20 23 26 27 24 23 22 25 24 23 23 23
20 19 20 19 18 17 15 15 14 14 15 14 15 15 15 15 15 15 16 15 15 16 16 17 18 18 19 20 19 20 19 19 25 28 25 23 24 23 23 21 21 22 22 22
18 18 20 20 17 16 15 14 13 14 14 15 15 14 14 15 15 14 14 15 15 15 17 17 17 17 18 19 20 21 21 23 24 25 23 22 22 23 22 21 20 20 18 18
17 18 19 20 15 14 14 12 13 13 13 13 14 15 14 13 13 14 15 14 15 16 17 17 17 18 19 19 20 22 23 24 24 23 22 22 22 22 21 21 21 17 15 14